Location: Unspecified
(0.0000°N, 0.0000°E)
Time: 01:33:26
(UTC+00:00)

Hubble Space Telescope - Pass Details

Date: 18 February 2019
Orbit: 537 x 540 km, 28.5° (Epoch: 15 February)

Event Time Altitude Azimuth Distance (km) Brightness Sun altitude
Rises 19:14:48 0° 328° (NNW) 2,668 4.6 -14.9°
Reaches altitude 10° 19:17:54 10° 353° (N) 1,779 3.4 -15.7°
Enters shadow 19:19:56 15° 22° (NNE) 1,507 2.7 -16.2°
